Simultaneous Nadir Overpasses (SNOs) Predictions

Prediction of SNOs between METOP-B and NOAA-19 Satellite Orbit:

Table of predicted SNOs for the next 14.0 days since TLE Epoch: 10/3/2014
Index Date (METOP-B) Time (METOP-B) Lat,Lon (METOP-B) SZA (METOP-B ) Date (NOAA-19) Time (NOAA-19) Lat,Lon (NOAA-19) SZA (NOAA-19 ) Distance(km) Time Diff (sec)
1 10/04/2014 18:37:10 74.94,-102.33 79.39 10/04/2014 18:36:04 74.98,-105.60 79.46 94.59 66
2 10/04/2014 19:28:02 -74.41, 63.58 101.13 10/04/2014 19:26:48 -74.44, 63.19 101.09 12.24 74
3 10/04/2014 20:18:44 74.33,-129.29 78.81 10/04/2014 20:17:54 74.34,-129.32 78.82 1.36 50
4 10/04/2014 21:09:25 -74.34, 38.05 101.17 10/04/2014 21:08:49 -74.33, 37.98 101.18 2.31 36
5 10/04/2014 22:00:06 74.31,-154.69 78.82 10/04/2014 21:59:57 74.32,-154.78 78.83 3.15 9
6 10/04/2014 22:50:48 -74.27, 12.53 101.22 10/04/2014 22:50:51 -74.26, 12.65 101.22 3.65 3
7 10/04/2014 23:41:28 74.28, 179.91 78.82 10/04/2014 23:41:59 74.26, 179.88 78.79 3.19 31
8 10/05/2014 00:32:10 -74.24, -12.87 101.21 10/05/2014 00:32:54 -74.24, -12.82 101.21 1.75 44
9 10/05/2014 01:22:51 74.21, 154.38 78.77 10/05/2014 01:24:02 74.24, 154.42 78.80 3.16 71
10 10/05/2014 02:13:40 -73.82, -39.24 101.59 10/05/2014 02:14:49 -73.84, -37.29 101.60 60.33 69
11 10/15/2014 02:06:11 -74.72, -35.19 96.93 10/15/2014 02:05:01 -74.74, -37.04 96.90 54.25 70
12 10/15/2014 02:56:59 74.35, 131.16 82.72 10/15/2014 02:56:00 74.34, 131.28 82.71 3.73 59
13 10/15/2014 03:47:40 -74.36, -61.49 97.27 10/15/2014 03:46:56 -74.35, -61.45 97.28 1.85 44
14 10/15/2014 04:38:20 74.33, 105.76 82.72 10/15/2014 04:38:02 74.33, 105.82 82.72 1.79 18
15 10/15/2014 05:29:01 -74.33, -86.89 97.27 10/15/2014 05:28:58 -74.33, -86.92 97.27 1.02 3
16 10/15/2014 06:19:42 74.30, 80.35 82.72 10/15/2014 06:20:05 74.31, 80.35 82.73 0.93 23
17 10/15/2014 07:10:23 -74.31,-112.30 97.27 10/15/2014 07:11:01 -74.31,-112.38 97.26 2.60 38
18 10/15/2014 08:01:04 74.28, 54.95 82.72 10/15/2014 08:02:08 74.29, 54.88 82.74 2.65 64
19 10/15/2014 08:51:48 -74.14,-138.07 97.41 10/15/2014 08:53:01 -74.15,-137.47 97.40 18.25 73




NCC Satellite Simultaneous Nadir Overpasses (SNOs) Prediction Service
